OE7WDJ Weather Reports


Display with metric or nautical units.
time (UTC)temp
F
wind
direction
speed
MPH
gust
MPH
rain 1hr
in
rain 24hr
in
rain mn
in
humidity
%
barometer
mb
20260903065004 63 112 0.0 0.0 0.00 0.00 0.00 81 1021.1
20260903064503 62 112 0.0 0.0 0.00 0.00 0.00 82 1021.0
20260903063503 61 248 0.0 0.0 0.00 0.00 0.00 86 1021.2
20260903062503 58 248 0.0 0.0 0.00 0.00 0.00 89 1021.0
20260903062004 56 248 0.0 0.0 0.00 0.00 0.00 88 1021.1
20260903061503 56 248 0.0 0.0 0.00 0.00 0.00 88 1021.0
20260903061003 56 248 0.0 0.0 0.00 0.00 0.00 88 1021.0
20260903060003 56 248 0.0 0.0 0.00 0.00 0.00 88 1021.2
20260903055503 56 248 0.0 0.0 0.00 0.00 0.00 88 1021.1
20260903055003 55 248 0.0 0.0 0.00 0.00 0.00 88 1021.1
20260903052503 55 248 0.0 0.0 0.00 0.00 0.00 87 1020.9
20260903050503 55 248 0.0 0.0 0.00 0.00 0.00 87 1020.8
20260903045503 55 248 0.0 0.0 0.00 0.00 0.00 87 1020.9
20260903044003 55 248 0.0 0.0 0.00 0.00 0.00 87 1020.6
20260903042503 55 248 0.0 0.0 0.00 0.00 0.00 87 1020.5
20260903042003 55 248 0.0 0.0 0.00 0.00 0.00 87 1020.4
20260903041502 55 248 0.0 0.0 0.00 0.00 0.00 87 1020.3
20260903041004 55 248 0.0 0.0 0.00 0.00 0.00 87 1020.5
20260903040504 55 248 0.0 0.0 0.00 0.00 0.00 87 1020.3
20260902195004 65 248 0.0 0.0 0.00 0.00 0.00 69 1019.2
20260902194503 65 270 0.0 0.0 0.00 0.00 0.00 69 1019.2
20260902192005 65 270 0.0 0.0 0.00 0.00 0.00 70 1019.0
20260902185503 65 270 0.0 0.0 0.00 0.00 0.00 69 1018.7
20260902185004 65 248 0.0 0.0 0.00 0.00 0.00 69 1018.6
20260902184503 65 248 5.0 0.0 0.00 0.00 0.00 69 1018.5
20260902182503 66 270 0.0 0.0 0.00 0.00 0.00 68 1018.1
20260902181503 65 270 0.0 0.0 0.00 0.00 0.00 69 1018.0
20260902175005 66 270 0.0 0.0 0.00 0.00 0.00 68 1017.8
20260902174505 66 248 0.0 0.0 0.00 0.00 0.00 68 1017.7
20260902174007 66 270 0.0 0.0 0.00 0.00 0.00 68 1017.5
20260902173503 67 248 5.0 0.0 0.00 0.00 0.00 68 1017.4
20260902173006 67 270 0.0 0.0 0.00 0.00 0.00 68 1017.3
20260902172503 67 248 3.0 0.0 0.00 0.00 0.00 68 1017.2
20260902172003 67 248 3.0 0.0 0.00 0.00 0.00 68 1017.2
20260902171003 68 270 0.0 0.0 0.00 0.00 0.00 67 1017.1
20260902170504 68 248 0.0 0.0 0.00 0.00 0.00 65 1017.0
20260902164003 69 248 0.0 0.0 0.00 0.00 0.00 65 1016.8
20260902163503 69 248 0.0 0.0 0.00 0.00 0.00 65 1016.8
20260902163003 69 248 0.0 0.0 0.00 0.00 0.00 65 1016.9
20260902162003 69 248 0.0 0.0 0.00 0.00 0.00 66 1016.8
20260902160006 69 248 0.0 0.0 0.00 0.00 0.00 65 1016.6
20260902155503 69 248 0.0 0.0 0.00 0.00 0.00 65 1016.7
20260902154003 70 248 0.0 0.0 0.00 0.00 0.00 64 1016.5
20260902153503 70 248 1.0 0.0 0.00 0.00 0.00 62 1016.5
20260902153003 71 225 0.0 0.0 0.00 0.00 0.00 60 1016.5
20260902152505 71 248 0.0 0.0 0.00 0.00 0.00 60 1016.5
20260902151503 72 112 0.0 0.0 0.00 0.00 0.00 60 1016.6
20260902150006 76 112 0.0 0.0 0.00 0.00 0.00 55 1016.7
20260902145503 80 112 0.0 0.0 0.00 0.00 0.00 51 1016.6
20260902144503 82 68 0.0 0.0 0.00 0.00 0.00 45 1016.5
20260902144003 82 112 4.0 0.0 0.00 0.00 0.00 46 1016.5
20260902143505 82 112 0.0 0.0 0.00 0.00 0.00 46 1016.5
20260902142503 80 112 3.0 0.0 0.00 0.00 0.00 46 1016.5
20260902142003 80 90 0.0 0.0 0.00 0.00 0.00 49 1016.6
20260902141003 80 112 0.0 0.0 0.00 0.00 0.00 47 1016.8
20260902134503 81 112 0.0 0.0 0.00 0.00 0.00 49 1016.9
20260902134003 81 112 0.0 0.0 0.00 0.00 0.00 46 1016.9
20260902132003 81 112 0.0 0.0 0.00 0.00 0.00 48 1017.0
20260902124503 82 112 0.0 0.0 0.00 0.00 0.00 46 1017.2
20260902123503 84 112 0.0 0.0 0.00 0.00 0.00 46 1017.1
20260902123004 83 68 0.0 0.0 0.00 0.00 0.00 46 1017.4
20260902122504 82 68 2.0 0.0 0.00 0.00 0.00 47 1017.3
20260902122004 82 90 0.0 0.0 0.00 0.00 0.00 46 1017.5
20260902121004 82 90 0.0 0.0 0.00 0.00 0.00 47 1017.5
20260902120005 82 112 0.0 0.0 0.00 0.00 0.00 47 1017.7
20260902115504 81 90 0.0 0.0 0.00 0.00 0.00 48 1017.6
20260902114503 80 112 0.0 0.0 0.00 0.00 0.00 49 1017.8
20260902112503 83 112 5.0 0.0 0.00 0.00 0.00 46 1017.8
20260902111003 83 90 0.0 0.0 0.00 0.00 0.00 45 1017.9
20260902110501 85 112 0.0 0.0 0.00 0.00 0.00 43 1017.9
20260902104504 84 68 0.0 0.0 0.00 0.00 0.00 45 1018.2
20260902104003 83 68 0.0 0.0 0.00 0.00 0.00 47 1018.3
20260902103505 82 135 0.0 0.0 0.00 0.00 0.00 48 1018.4
20260902103004 82 112 0.0 0.0 0.00 0.00 0.00 49 1018.5
20260902102504 80 112 0.0 0.0 0.00 0.00 0.00 51 1018.5
20260902102004 79 112 0.0 0.0 0.00 0.00 0.00 51 1018.6
20260902101004 80 90 0.0 0.0 0.00 0.00 0.00 50 1018.8
20260902100504 80 112 4.0 0.0 0.00 0.00 0.00 50 1018.8
20260902094504 78 112 0.0 0.0 0.00 0.00 0.00 52 1019.1
20260902093504 76 112 0.0 0.0 0.00 0.00 0.00 55 1019.3
20260902092003 73 135 0.0 0.0 0.00 0.00 0.00 58 1019.3
20260902091003 73 158 0.0 0.0 0.00 0.00 0.00 59 1019.6
20260902085503 72 158 0.0 0.0 0.00 0.00 0.00 62 1019.7
20260902085003 71 158 0.0 0.0 0.00 0.00 0.00 62 1019.6
20260902084503 71 135 0.0 0.0 0.00 0.00 0.00 63 1019.6
20260902083004 70 112 0.0 0.0 0.00 0.00 0.00 66 1019.7
20260902082003 69 135 0.0 0.0 0.00 0.00 0.00 67 1019.6
20260902081003 68 135 0.0 0.0 0.00 0.00 0.00 68 1019.6
20260902075503 67 180 0.0 0.0 0.00 0.00 0.00 72 1019.7
20260902073003 64 180 0.0 0.0 0.00 0.00 0.00 77 1019.8
20260902072503 63 202 0.0 0.0 0.00 0.00 0.00 78 1019.7
20260902071503 63 202 0.0 0.0 0.00 0.00 0.00 79 1020.0
20260902071004 63 202 0.0 0.0 0.00 0.00 0.00 79 1019.9
20260902070503 62 225 0.0 0.0 0.00 0.00 0.00 80 1020.0
20260902065503 62 225 0.0 0.0 0.00 0.00 0.00 83 1020.0